Weather History for KMUI - April, 2014

Change the Weather History Date:

Monday, April 7, 2014

  Actual Average Record
Temperature  
Mean Temperature 40 °F -  
Max Temperature 46 °F 55 °F 75 °F (2005)
Min Temperature 33 °F 40 °F 30 °F (2003)
Degree Days  
Heating Degree Days 26    
Moisture  
Dew Point 41 °F    
Average Humidity 99    
Maximum Humidity 100    
Minimum Humidity 73    
Precipitation  
Precipitation 0.37 in - - ()
Sea Level Pressure  
Sea Level Pressure 29.89 in    
Wind  
Wind Speed 6 mph (ENE)    
Max Wind Speed 14 mph    
Max Gust Speed 20 mph    
Visibility 6 miles    
Events Rain    
Averages and records for this station are not official NWS values.
T = Trace of Precipitation, MM = Missing Value Source: NWS Daily Summary

Daily Weather History Graph

Daily Weather History Graph

Search for Another Location

Airport or City:

Trip Planner

Search our weather history database for the weather conditions in past years. The results will help you decide how hot, cold, wet, or windy it might be!

Date:

Astronomy

Apr. 07, 2014 Rise Set
Actual Time 6:40 AM EDT 7:37 PM EDT
Civil Twilight 6:12 AM EDT 8:04 PM EDT
Nautical Twilight 5:39 AM EDT 8:37 PM EDT
Astronomical Twilight 5:05 AM EDT 9:12 PM EDT
Moon 12:33 PM EDT (4/7) 2:13 AM EDT (4/7)
Length of Visible Light 13h 52m
Length of Day
12h 56m
First Quarter, 53% of the Moon is Illuminated
Apr 7
First Quarter
Apr 15
Full
Apr 22
Last Quarter
Apr 29
New
May 6
First Quarter

Hourly Weather History & Observations

Time (EDT) Temp. Windchill Dew Point Humidity Pressure Visibility Wind Dir Wind Speed Gust Speed Precip Events Conditions
12:58 AM 37.2 °F 34.7 °F 32.7 °F 84% 30.19 in 10.0 mi NE 3.5 mph - N/A   Mostly Cloudy
1:58 AM 35.1 °F - 33.3 °F 93% 30.17 in 10.0 mi North 1.2 mph - N/A   Clear
2:58 AM 33.3 °F 30.2 °F 33.1 °F 99% 30.16 in 10.0 mi NNE 3.5 mph - N/A   Clear
3:58 AM 33.8 °F - 33.4 °F 99% 30.15 in 10.0 mi NE 1.2 mph - N/A   Mostly Cloudy
4:58 AM 35.6 °F - 32.4 °F 88% 30.14 in 10.0 mi ENE 1.2 mph - N/A   Mostly Cloudy
5:58 AM 33.6 °F 30.6 °F 33.4 °F 99% 30.13 in 10.0 mi NE 3.5 mph - N/A   Clear
6:58 AM 33.8 °F 29.6 °F 33.6 °F 99% 30.15 in 10.0 mi NE 4.6 mph - N/A   Partly Cloudy
7:58 AM 39.0 °F - 31.1 °F 73% 30.18 in 10.0 mi Calm Calm - N/A   Overcast
8:22 AM 39.2 °F - 32.0 °F 75% 30.17 in 10.0 mi NE 2.3 mph - N/A Rain Light Rain
8:58 AM 38.7 °F - 38.5 °F 99% 30.18 in 10.0 mi NNE 2.3 mph - 0.00 in Rain Light Rain
9:58 AM 38.8 °F 36.5 °F 38.7 °F 99% 30.16 in 10.0 mi Variable 3.5 mph - 0.03 in Rain Light Rain
10:58 AM 39.6 °F 36.3 °F 39.6 °F 100% 30.14 in 7.0 mi Variable 4.6 mph - 0.05 in Rain Light Rain
11:30 AM 39.2 °F 35.9 °F 39.2 °F 100% 30.11 in 5.0 mi ENE 4.6 mph - N/A Rain Light Rain
11:58 AM 39.9 °F 35.8 °F 39.9 °F 100% 30.11 in 7.0 mi Variable 5.8 mph - 0.08 in Rain Light Rain
12:58 PM 39.4 °F 33.2 °F 39.4 °F 100% 30.07 in 8.0 mi ENE 9.2 mph - 0.04 in Rain Light Rain
1:50 PM 39.2 °F 33.6 °F 39.2 °F 100% 29.98 in 10.0 mi ENE 8.1 mph - N/A   Overcast
1:58 PM 40.1 °F 34.1 °F 39.9 °F 99% 29.99 in 10.0 mi NE 9.2 mph - 0.02 in   Overcast
2:18 PM 41.0 °F 35.8 °F 41.0 °F 100% 29.95 in 10.0 mi ENE 8.1 mph - N/A   Overcast
2:22 PM 41.0 °F 36.4 °F 41.0 °F 100% 29.96 in 10.0 mi NE 6.9 mph - N/A   Overcast
2:32 PM 41.0 °F 35.2 °F 41.0 °F 100% 29.94 in 10.0 mi ENE 9.2 mph - N/A   Overcast
2:33 PM 41.0 °F 36.4 °F 41.0 °F 100% 29.95 in 10.0 mi NE 6.9 mph - N/A   Overcast
2:42 PM 41.0 °F 36.4 °F 41.0 °F 100% 29.95 in 10.0 mi ENE 6.9 mph - N/A   Overcast
2:58 PM 40.8 °F 34.5 °F 40.8 °F 100% 29.94 in 10.0 mi ENE 10.4 mph - 0.00 in   Overcast
3:10 PM 41.0 °F 34.7 °F 41.0 °F 100% 29.93 in 10.0 mi ENE 10.4 mph - N/A   Light Drizzle
3:17 PM 41.0 °F 35.8 °F 41.0 °F 100% 29.93 in 10.0 mi ENE 8.1 mph - N/A   Light Drizzle
3:25 PM 41.0 °F 34.7 °F 41.0 °F 100% 29.92 in 3.0 mi ENE 10.4 mph - N/A   Light Drizzle
3:29 PM 41.0 °F 33.9 °F 41.0 °F 100% 29.91 in 3.0 mi ENE 12.7 mph - N/A   Light Drizzle
3:58 PM 40.8 °F 37.8 °F 40.8 °F 100% 29.93 in 3.0 mi NE 4.6 mph - 0.02 in   Light Drizzle
4:02 PM 41.0 °F 37.1 °F 41.0 °F 100% 29.90 in 2.5 mi NE 5.8 mph - N/A   Light Drizzle
4:03 PM 41.0 °F 37.1 °F 41.0 °F 100% 29.90 in 2.5 mi NE 5.8 mph - N/A   Light Drizzle
4:05 PM 41.0 °F 37.1 °F 41.0 °F 100% 29.89 in 3.0 mi NE 5.8 mph - N/A   Light Drizzle
4:31 PM 41.0 °F 36.4 °F 41.0 °F 100% 29.89 in 3.0 mi NE 6.9 mph - N/A   Light Drizzle
4:33 PM 41.0 °F 37.1 °F 41.0 °F 100% 29.89 in 2.5 mi NE 5.8 mph - N/A   Light Drizzle
4:57 PM 42.8 °F 38.6 °F 42.8 °F 100% 29.87 in 2.0 mi ENE 6.9 mph - N/A   Overcast
4:58 PM 41.9 °F 38.2 °F 41.9 °F 100% 29.89 in 2.0 mi ENE 5.8 mph - 0.05 in   Overcast
5:08 PM 42.8 °F 38.6 °F 42.8 °F 100% 29.87 in 2.0 mi ENE 6.9 mph - N/A   Overcast
5:22 PM 42.8 °F 38.6 °F 42.8 °F 100% 29.84 in 3.0 mi NE 6.9 mph - N/A Rain Light Rain
5:45 PM 42.8 °F 38.0 °F 42.8 °F 100% 29.82 in 4.0 mi ENE 8.1 mph - N/A   Overcast
5:51 PM 42.8 °F 37.5 °F 42.8 °F 100% 29.81 in 3.0 mi ENE 9.2 mph - N/A Rain Light Rain
5:53 PM 42.8 °F 37.5 °F 42.8 °F 100% 29.81 in 3.0 mi ENE 9.2 mph - N/A   Overcast
5:58 PM 43.5 °F 40.1 °F 43.5 °F 100% 29.83 in 3.0 mi ENE 5.8 mph - 0.04 in   Overcast
6:18 PM 44.6 °F 39.7 °F 44.6 °F 100% 29.80 in 4.0 mi ENE 9.2 mph - N/A   Overcast
6:23 PM 44.6 °F 39.2 °F 44.6 °F 100% 29.79 in 4.0 mi ENE 10.4 mph 17.3 mph N/A Rain Light Rain
6:30 PM 44.6 °F 38.4 °F 44.6 °F 100% 29.78 in 5.0 mi ENE 12.7 mph 17.3 mph N/A   Overcast
6:58 PM 44.4 °F 39.0 °F 44.4 °F 100% 29.79 in 4.0 mi ENE 10.4 mph - 0.01 in   Overcast
7:02 PM 44.6 °F 38.1 °F 44.6 °F 100% 29.76 in 3.0 mi ENE 13.8 mph 18.4 mph N/A Rain Light Rain
7:08 PM 44.6 °F 38.8 °F 44.6 °F 100% 29.76 in 2.5 mi ENE 11.5 mph 18.4 mph N/A Rain Light Rain
7:16 PM 44.6 °F 38.8 °F 44.6 °F 100% 29.75 in 3.0 mi ENE 11.5 mph 17.3 mph N/A   Overcast
7:38 PM 44.6 °F 40.2 °F 44.6 °F 100% 29.74 in 2.5 mi ENE 8.1 mph 18.4 mph N/A Rain Light Rain
7:40 PM 44.6 °F 38.8 °F 44.6 °F 100% 29.74 in 3.0 mi ENE 11.5 mph - N/A Rain Light Rain
7:52 PM 44.6 °F 39.2 °F 44.6 °F 100% 29.75 in 4.0 mi ENE 10.4 mph 17.3 mph N/A   Overcast
7:58 PM 44.2 °F 39.2 °F 44.2 °F 100% 29.77 in 4.0 mi ENE 9.2 mph 16.1 mph 0.01 in   Overcast
8:28 PM 44.6 °F 38.8 °F 44.6 °F 100% 29.73 in 4.0 mi ENE 11.5 mph - N/A   Overcast
8:29 PM 44.6 °F 39.7 °F 44.6 °F 100% 29.72 in 4.0 mi ENE 9.2 mph - N/A Rain Light Rain
8:39 PM 44.6 °F 39.2 °F 44.6 °F 100% 29.72 in 4.0 mi ENE 10.4 mph 19.6 mph N/A   Overcast
8:58 PM 44.2 °F 39.2 °F 44.2 °F 100% 29.72 in 5.0 mi ENE 9.2 mph - 0.01 in   Overcast
9:58 PM 45.0 °F 39.7 °F 45.0 °F 100% 29.72 in 7.0 mi East 10.4 mph - N/A   Overcast
10:05 PM 44.6 °F 39.2 °F 44.6 °F 100% 29.69 in 6.0 mi ENE 10.4 mph - N/A   Overcast
10:19 PM 44.6 °F 41.4 °F 44.6 °F 100% 29.69 in 4.0 mi ENE 5.8 mph - N/A   Overcast
10:22 PM 44.6 °F 40.2 °F 44.6 °F 100% 29.69 in 4.0 mi ENE 8.1 mph - N/A   Overcast
10:58 PM 45.5 °F 41.8 °F 45.5 °F 100% 29.68 in 4.0 mi East 6.9 mph - 0.00 in   Overcast
11:21 PM 46.4 °F 42.9 °F 46.4 °F 100% 29.64 in 4.0 mi ENE 6.9 mph - N/A   Overcast
11:30 PM 46.4 °F 42.9 °F 46.4 °F 100% 29.63 in 4.0 mi ENE 6.9 mph - N/A   Overcast
11:35 PM 46.4 °F 42.4 °F 46.4 °F 100% 29.63 in 4.0 mi ENE 8.1 mph - N/A Rain Light Rain
11:46 PM 46.4 °F 44.3 °F 46.4 °F 100% 29.62 in 4.0 mi ENE 4.6 mph - N/A   Overcast
11:58 PM 46.0 °F 42.5 °F 46.0 °F 100% 29.63 in 4.0 mi ENE 6.9 mph - 0.01 in   Overcast